Aspen, CO

9:56 PM MDT on July 23, 2017 (GMT -0600)
Aspen-Pitkin County / Sardy Field

Weather History for KASE - October, 2013

Change the Weather History Date:

Tuesday, October 8, 2013

  Actual Average Record
Temperature  
Mean Temperature 48 °F 45 °F  
Max Temperature 65 °F 60 °F 72 °F (1980)
Min Temperature 30 °F 30 °F 13 °F (1992)
Degree Days  
Heating Degree Days 17 20  
Month to date heating degree days 170 149  
Since 1 July heating degree days 590 696  
Cooling Degree Days 0 0  
Month to date cooling degree days 0 0  
Year to date cooling degree days 69 39  
Moisture  
Dew Point 25 °F    
Average Humidity 46    
Maximum Humidity 75    
Minimum Humidity 16    
Precipitation  
Precipitation 0.00 in 0.05 in 0.85 in (1985)
Month to date precipitation 0.18 0.43  
Year to date precipitation 12.82 13.71  
Sea Level Pressure  
Sea Level Pressure 29.81 in    
Wind  
Wind Speed 6 mph (SSW)    
Max Wind Speed 17 mph    
Max Gust Speed 23 mph    
Visibility 10 miles    
Events      
T = Trace of Precipitation, MM = Missing Value Source: NWS Daily Summary

Daily Weather History Graph

Daily Weather History Graph

Search for Another Location

Airport or City:

Trip Planner

Search our weather history database for the weather conditions in past years. The results will help you decide how hot, cold, wet, or windy it might be!

Date:

Astronomy

Oct. 08, 2013 Rise Set
Actual Time 7:10 AM MDT 6:38 PM MDT
Civil Twilight 6:43 AM MDT 7:05 PM MDT
Nautical Twilight 6:12 AM MDT 7:36 PM MDT
Astronomical Twilight 5:41 AM MDT 8:07 PM MDT
Moon 11:06 AM MDT (10/8) 9:19 PM MDT (10/8)
Length of Visible Light 12h 21m
Length of Day
11h 28m
Waxing Crescent, 16% of the Moon is Illuminated
Oct 8
Waxing Crescent
Oct 11
First Quarter
Oct 18
Full
Oct 26
Last Quarter
Nov 3
New

Hourly Weather History & Observations

Time (MDT) Temp. Windchill Dew Point Humidity Pressure Visibility Wind Dir Wind Speed Gust Speed Precip Events Conditions
12:53 AM 37.0 °F 31.6 °F 27.0 °F 67% 29.93 in 10.0 mi South 6.9 mph - N/A   Clear
1:53 AM 37.9 °F 35.5 °F 27.0 °F 65% 29.89 in 10.0 mi South 3.5 mph - N/A   Clear
2:53 AM 37.0 °F 31.6 °F 27.0 °F 67% 29.88 in 10.0 mi SE 6.9 mph - N/A   Clear
3:53 AM 37.9 °F 33.5 °F 28.0 °F 68% 29.87 in 10.0 mi SSE 5.8 mph - N/A   Clear
4:53 AM 34.0 °F 28.8 °F 27.0 °F 75% 29.88 in 10.0 mi SSW 5.8 mph - N/A   Clear
5:53 AM 32.0 °F 28.7 °F 25.0 °F 75% 29.91 in 10.0 mi SSW 3.5 mph - N/A   Clear
6:53 AM 34.0 °F 28.8 °F 23.0 °F 64% 29.92 in 10.0 mi SSW 5.8 mph - N/A   Clear
7:53 AM 33.1 °F 30.0 °F 24.1 °F 70% 29.93 in 10.0 mi SW 3.5 mph - N/A   Clear
8:53 AM 44.1 °F 40.8 °F 23.0 °F 43% 29.90 in 10.0 mi SSE 5.8 mph - N/A   Clear
9:53 AM 52.0 °F - 21.0 °F 30% 29.86 in 10.0 mi Calm Calm - N/A   Clear
10:53 AM 59.0 °F - 21.0 °F 23% 29.81 in 10.0 mi NNW 5.8 mph - N/A   Clear
11:53 AM 63.0 °F - 16.0 °F 16% 29.78 in 10.0 mi West 5.8 mph - N/A   Clear
12:53 PM 63.0 °F - 19.9 °F 19% 29.74 in 10.0 mi WSW 8.1 mph 19.6 mph N/A   Clear
1:53 PM 64.0 °F - 21.9 °F 20% 29.68 in 10.0 mi WSW 10.4 mph 18.4 mph N/A   Clear
2:53 PM 64.0 °F - 23.0 °F 21% 29.68 in 10.0 mi SW 12.7 mph - N/A   Clear
3:53 PM 63.0 °F - 24.1 °F 23% 29.68 in 10.0 mi West 9.2 mph 21.9 mph N/A   Clear
4:53 PM 62.1 °F - 23.0 °F 22% 29.71 in 10.0 mi South 8.1 mph - N/A   Clear
5:53 PM 57.9 °F - 25.0 °F 28% 29.75 in 10.0 mi West 10.4 mph - N/A   Clear
6:53 PM 50.0 °F - 27.0 °F 41% 29.78 in 10.0 mi SW 8.1 mph - N/A   Clear
7:53 PM 46.0 °F 44.8 °F 28.0 °F 50% 29.82 in 10.0 mi SSW 3.5 mph - N/A   Clear
8:53 PM 44.1 °F 40.8 °F 28.9 °F 55% 29.80 in 10.0 mi SSW 5.8 mph - N/A   Clear
9:53 PM 41.0 °F 35.8 °F 28.0 °F 60% 29.77 in 10.0 mi SSW 8.1 mph - N/A   Mostly Cloudy
10:53 PM 41.0 °F 38.0 °F 28.9 °F 62% 29.74 in 10.0 mi South 4.6 mph - N/A   Scattered Clouds
11:53 PM 36.0 °F 32.1 °F 28.9 °F 76% 29.73 in 10.0 mi SSW 4.6 mph - N/A   Partly Cloudy